Regional Weather Roundup
Issued by NWS

Home | Current Version | Previous Version | Graphics & Text | Print | Product List | Glossary On
Versions: 1 2 3 4 5 6 7 8 9 10 11 12 13 14 15 16 17 18 19 20 21 22 23 24 25 26 27 28 29 30 31 32 33 34 35 36 37 38 39 40 41 42 43 44 45 46 47 48 49 50
000
ASUS43 KLOT 051100
RWRIL

ILLINOIS REGIONAL WEATHER ROUNDUP
NATIONAL WEATHER SERVICE CHICAGO/ROMEOVILLE IL
600 AM CDT TUE MAY 05 2015

NOTE: "FAIR" INDICATES FEW OR NO CLOUDS BELOW 12,000 FEET WITH NO
SIGNIFICANT WEATHER AND/OR OBSTRUCTIONS TO VISIBILITY.

* THESE STATIONS ARE NOT UNDER NWS QUALITY CONTROL. THEY ALSO MAY NOT
  REPORT WEATHER SUCH AS PRECIPITATION OR FOG.

ILZ001-002-007-009-015-016-024-051200-
NORTHWEST ILLINOIS

CITY           SKY/WX    TMP DP  RH WIND       PRES   REMARKS
MOLINE         CLOUDY    58  57  97 E7        30.09R FOG
STERLING*      CLOUDY    54  48  82 E16       30.12F
$$

ILZ003-004-008-010-011-017-018-051200-
NORTH CENTRAL ILLINOIS

CITY           SKY/WX    TMP DP  RH WIND       PRES   REMARKS
ROCKFORD       RAIN      53  49  86 E10       30.20S FOG
$$

ILZ005-006-012>014-019>023-051200-
NORTHEAST ILLINOIS

CITY           SKY/WX    TMP DP  RH WIND       PRES   REMARKS
CHICAGO-OHARE  RAIN      49  48  97 NE6       30.21R FOG
CHICAGO-MIDWAY RAIN      53  52  96 N5        30.21R FOG
AURORA         LGT RAIN  53  49  86 NE14      30.19S FOG
WAUKEGAN       LGT RAIN  47  44  90 NE6       30.23R
DUPAGE AIRPORT RAIN      51  49  92 NE8       30.21R FOG
WHEELING       HVY RAIN  49  46  90 N7        30.24R FOG
NORTHERLY ISL    N/A     48  46  93 N8          N/A
$$

LMZ740>746-051200-
SOUTHERN LAKE MICHIGAN

STATION/POSITION SKY/WX   TEMP    WIND        PRES    VSBY  WAVE
                          AIR SEA DIR/SP/G                  HT/PER
                          (F)     (DEG/KT/KT) (MB)    (MI)  (FT/S)
HARRISON CRIB              48     360/  9/ 11   N/A
BURNHAM HARBOR             48     360/  8/ 12   N/A
CALUMET HARBOR             49     310/  4/  7   N/A
BURNS HARBOR               48     310/  8/ 13 1023.7R
MICHIGAN CITY              51      40/  7/  8   N/A
MICHIGAN CITY 6N           48 50   60/  8/ 10   N/A           1
ST. JOSEPH                 49 49   10/  8/ 10   N/A           1
$$

ILZ025>027-034>036-040-047-049-050-058-095>099-051200-
WEST-CENTRAL ILLINOIS

CITY           SKY/WX    TMP DP  RH WIND       PRES   REMARKS
QUINCY         CLOUDY    64  60  87 SE6       30.11R
$$

ILZ028>032-037-038-041>044-048-051>054-059>061-051200-
CENTRAL ILLINOIS

CITY           SKY/WX    TMP DP  RH WIND       PRES   REMARKS
DECATUR        CLOUDY    67  54  63 W8        30.16R
PEORIA         CLOUDY    63  60  90 E10       30.13R FOG
SPRINGFIELD    CLOUDY    65  56  72 CALM      30.14S
TAYLORVILLE    NOT AVBL
$$

ILZ033-039-045-046-055>057-062-063-051200-
EAST-CENTRAL ILLINOIS

CITY           SKY/WX    TMP DP  RH WIND       PRES   REMARKS
CHAMPAIGN      CLOUDY    63  55  75 S8        30.16R
MATTOON        PTCLDY    64  52  64 S7        30.17R
$$

ILZ079-100>102-051200-
SOUTHWEST ILLINOIS

CITY           SKY/WX    TMP DP  RH WIND       PRES   REMARKS
BELLEVILLE     PTCLDY    59  55  87 S1        30.15R
CAHOKIA*       MOCLDY    62  53  72 S5        30.15R
$$

ILZ064>066-069>071-074>076-080>082-084>086-088>090-092>094-051200-
SOUTH-CENTRAL ILLINOIS

CITY           SKY/WX    TMP DP  RH WIND       PRES   REMARKS
CARBONDALE     PTCLDY    55  52  89 CALM      30.19R
MT. VERNON     CLEAR    N/A N/A N/A CALM      30.19S
METROPOLIS*    PTCLDY    57  55  91 CALM      30.20S
$$

ILZ067-068-072-073-078-083-087-091-051200-
SOUTHEAST ILLINOIS

CITY           SKY/WX    TMP DP  RH WIND       PRES   REMARKS
LAWRENCEVILLE  PTCLDY    59  54  83 S3        30.21R
$$

ABBREVIATIONS USED IN REMARKS
   TC - TEMPERATURE IN CELSIUS
  WCI - WIND CHILL INDEX
   HX - HEAT INDEX
  VSB - VISIBILITY
$$




USA.gov is the U.S. government's official web portal to all federal, state and local government web resources and services.